カタログに戻る

FENGYUN 1C DEB

運用中SSO
NORAD 29873·DEBRIS·🇨🇳 China

打ち上げ May 10, 1999 から Taiyuan Satellite Launch Center

Loading…

次のパス (今後24時間)

TLE

最新Source: Space-Track

元期: Sep 14, 2026, 22:24 UTC

1 29873U 99025FT  26257.93351484  .00000694  00000-0  49930-3 0  9990
2 29873  99.4088 130.5923 0092235 167.1699 209.8059 13.98403153  1755

AllMySatでFENGYUN 1C DEBをリアルタイム追跡

Download on the App Store